{"data":{"norad_id":65218,"epoch":"2026-09-20T21:26:43.844928Z","epoch_age_seconds":86361,"freshness":"FRESH","line1":"1 65218U 25176W   26263.89356302  .00015094  00000+0  45734-3 0  9992","line2":"2 65218  53.1605 322.0137 0001597  77.6927 282.4255 15.34373378 63069","mean_motion":15.34373378,"eccentricity":0.0001597,"inclination_deg":53.1605,"raan_deg":322.0137,"arg_perigee_deg":77.6927,"mean_anomaly_deg":282.4255,"bstar":0.00045734,"rev_number":6306,"period_min":93.849386377975,"perigee_km":461.6898727225,"apogee_km":463.87486236849,"semimajor_km":6840.9193675455,"source":"CELESTRAK","updated_at":"2026-09-21T09:00:35.537465Z"}}